Regional Weather Roundup
Issued by NWS Jackson, KY

Home | Current Version | Previous Version | Graphics & Text | Print | Product List | Glossary On
Versions: 1 2 3 4 5 6 7 8 9 10 11 12 13 14 15 16 17 18 19 20 21 22 23 24 25 26 27 28 29 30 31 32 33 34 35 36 37 38 39 40 41 42 43 44 45 46 47 48 49 50
731
ASUS43 KJKL 281810
RWRJKL

EAST KENTUCKY HOURLY WEATHER ROUNDUP
NATIONAL WEATHER SERVICE JACKSON KY
200 PM EDT THU JUL 28 2016

NOTE: "FAIR" INDICATES FEW OR NO CLOUDS BELOW 12,000 FEET WITH
NO SIGNIFICANT WEATHER AND/OR OBSTRUCTIONS TO VISIBILITY.

* THESE REPORTS ARE NOT UNDER NWS QUALITY CONTROL AND MAY NOT
  REPORT WEATHER SUCH AS PRECIPITATION AND FOG.

KYZ079-080-083-085-087-088-110-112-115-119-120-281900
...EASTERN KENTUCKY...

CITY           SKY/WX    TMP DP  RH WIND       PRES   REMARKS
JACKSON        LGT RAIN  70  68  93 CALM      29.95S
6HR MIN TEMP:  70; 6HR MAX TEMP:  80; 6HR PCP:  0.54;

LONDON         PTSUNNY   76  66  71 NW7       29.95F
6HR MIN TEMP:  70; 6HR MAX TEMP:  79; 6HR PCP:  0.78;

SOMERSET*      HVY RAIN  72  72 100 N5        29.96S
MONTICELLO*    LGT RAIN N/A N/A N/A N13       29.97S
                                      6HR PCP:  0.41;

WILLIAMSBURG*  CLOUDY    75  75 100 NW5       29.95F
MIDDLESBORO*   MOSUNNY   85  71  63 S7        29.94F HX  90
6HR MIN TEMP:  71; 6HR MAX TEMP:  85;

HARLAN APT*    CLOUDY    82  68  61 SW3       29.96F
PIKE CO APT*   CLOUDY    76  74  92 W12       29.94S THUNDER
BIG SANDY APT* HVY RAIN  76  75  96 W9        29.94F
MOREHEAD APT*  LGT RAIN  72  70  94 S5        29.95S
ASHLAND*       PTSUNNY   72  72 100 CALM      29.88F
$$

KYZ035-036-041-042-044-050-067-078-099-281900
...CENTRAL KENTUCKY...

CITY           SKY/WX    TMP DP  RH WIND       PRES   REMARKS
MT STERLING*   CLOUDY    73  72  94 W5        29.96S
FLEMING/MASON* CLOUDY    73  71  94 SW7       29.94S
DANVILLE*      LGT RAIN  72  72 100 S3        29.96S
LEXINGTON      LGT RAIN  76  71  85 W6        29.94S
6HR MIN TEMP:  71; 6HR MAX TEMP:  76; 6HR PCP:  0.84;

FRANKFORT      CLOUDY    77  70  79 SW7       29.91F
6HR MIN TEMP:  72; 6HR MAX TEMP:  77; 6HR PCP:  0.51;

LOUISVILLE     CLOUDY    82  72  71 W8        29.90F
6HR MIN TEMP:  75; 6HR MAX TEMP:  82; 6HR PCP:  0.06;

LEBANON*         N/A     73  72  94 S3        29.94F
GLASGOW*       CLOUDY    73  73 100 N3        29.93F
BOWLING GREEN  CLOUDY    77  72  84 NE6       29.92F
6HR MIN TEMP:  72; 6HR MAX TEMP:  78; 6HR PCP:  0.28;

$$

KYZ091>093-OHZ055-061-077-WVZ005-015-034-035-042-281900
...SOUTHERN OHIO/WEST VIRGINIA...

CITY           SKY/WX    TMP DP  RH WIND       PRES   REMARKS
COVINGTON      CLOUDY    77  71  82 CALM      29.91F
COLUMBUS       CLOUDY    77  70  79 S6        29.90F
DAYTON         CLOUDY    81  69  67 W6        29.91F
WILMINGTON     LGT RAIN  75  72  90 E3        29.90F
HUNTINGTON     LGT RAIN  72  70  93 NE3       29.89F
CHARLESTON     PTSUNNY   80  72  76 NE5       29.90F
PINEVILLE*     CLOUDY    84  67  56 MISG      30.00F
BECKLEY        CLOUDY    79  68  69 SW7       30.00F
BLUEFIELD      PTSUNNY   79  67  66 W8        30.03F
LOGAN CO APT*    N/A     82  73  74 VRB6G13   29.92F
$$

VAZ002-007-008-TNZ017-027-036-066-071-281900
...SOUTHWEST VIRGINIA/EAST TENNESSEE...

CITY           SKY/WX    TMP DP  RH WIND       PRES   REMARKS
WISE*          CLOUDY    73  70  88 SW8       30.04F
JONESVILLE*    MOCLDY    81  72  74 SW7       29.98F
ABINGDON*      CLOUDY    80  72  76 NW6       30.01F
BRISTOL        PTSUNNY   84  71  65 NW8       29.97F
MORRISTOWN*    PTCLDY    86  66  51 W18G26    29.95F
SEVIERVILLE*     N/A     91  66  43 W14       29.93F HX  94
KNOXVILLE      PTSUNNY   87  67  51 SW21G26   29.94F HX  90
OAK RIDGE      CLOUDY    86  68  54 S9        29.95F
CROSSVILLE     LGT RAIN  73  70  90 VRB7      29.99F FOG
NASHVILLE      CLOUDY    78  74  87 CALM      29.93R
$$

...KEY TO REMARKS...
VSB - VISIBILITY IN MILES
WCI - WIND CHILL INDEX
HX  - HEAT INDEX

$$




USA.gov is the U.S. government's official web portal to all federal, state and local government web resources and services.